TimeEST,TemperatureF,Dew PointF,Humidity,Sea Level PressureIn,VisibilityMPH,Wind Direction,Wind SpeedMPH,Gust SpeedMPH,PrecipitationIn,Events,Conditions,WindDirDegrees,DateUTC
12:53 AM,9.0,-0.0,67,30.16,10.0,Calm,Calm,-,N/A,,Clear,0,2013-02-19 05:53:00
1:53 AM,9.0,-0.0,67,30.17,10.0,Calm,Calm,-,N/A,,Clear,0,2013-02-19 06:53:00
2:53 AM,9.0,-0.9,64,30.18,10.0,Calm,Calm,-,N/A,,Scattered Clouds,0,2013-02-19 07:53:00
3:53 AM,10.9,-0.0,61,30.17,10.0,NNE,4.6,-,N/A,,Mostly Cloudy,30,2013-02-19 08:53:00
4:53 AM,12.9,1.0,59,30.16,10.0,NW,3.5,-,N/A,,Overcast,320,2013-02-19 09:53:00
5:53 AM,12.0,1.9,64,30.14,10.0,Calm,Calm,-,N/A,,Clear,0,2013-02-19 10:53:00
6:53 AM,9.0,1.0,70,30.13,10.0,South,4.6,-,N/A,,Clear,170,2013-02-19 11:53:00
7:53 AM,12.9,1.9,62,30.11,10.0,Calm,Calm,-,N/A,,Clear,0,2013-02-19 12:53:00
8:53 AM,17.1,1.0,50,30.09,10.0,Calm,Calm,-,N/A,,Clear,0,2013-02-19 13:53:00
9:53 AM,21.9,1.9,42,30.06,10.0,Calm,Calm,-,N/A,,Clear,0,2013-02-19 14:53:00
10:53 AM,26.1,3.0,37,30.02,10.0,Calm,Calm,-,N/A,,Clear,0,2013-02-19 15:53:00
11:53 AM,32.0,5.0,32,29.97,10.0,Calm,Calm,-,N/A,,Clear,0,2013-02-19 16:53:00
2:53 PM,37.9,15.1,39,29.83,10.0,Calm,Calm,-,N/A,,Overcast,0,2013-02-19 19:53:00
3:53 PM,41.0,18.0,40,29.79,10.0,Variable,4.6,-,N/A,,Overcast,0,2013-02-19 20:53:00
4:53 PM,37.0,27.0,67,29.78,3.0,Calm,Calm,-,0.00,Snow,Light Snow,0,2013-02-19 21:53:00
5:03 PM,35.6,28.4,75,29.74,2.5,Calm,Calm,-,0.00,Snow,Light Snow,0,2013-02-19 22:03:00
5:53 PM,34.0,28.0,79,29.74,10.0,Calm,Calm,-,0.00,,Overcast,0,2013-02-19 22:53:00
6:03 PM,35.6,28.4,75,29.70,10.0,Calm,Calm,-,N/A,,Overcast,0,2013-02-19 23:03:00
7:53 PM,34.0,30.9,89,29.69,3.0,Calm,Calm,-,0.01,Rain,Light Rain,0,2013-02-20 00:53:00
8:53 PM,34.0,30.9,89,29.65,3.0,Calm,Calm,-,0.02,Rain,Light Rain,0,2013-02-20 01:53:00
9:06 PM,33.8,32.0,93,29.61,2.5,Calm,Calm,-,0.00,Rain,Light Rain,0,2013-02-20 02:06:00
9:38 PM,33.8,30.2,87,29.59,1.2,North,3.5,-,0.04,Rain,Light Rain,360,2013-02-20 02:38:00
9:53 PM,34.0,30.9,89,29.62,1.0,Calm,Calm,-,0.05,Rain,Light Rain,0,2013-02-20 02:53:00
10:09 PM,33.8,30.2,87,29.58,1.0,Calm,Calm,-,0.00,Rain,Light Rain,0,2013-02-20 03:09:00
10:18 PM,33.8,30.2,87,29.58,0.5,Calm,Calm,-,0.01,Fog-Rain,Light Rain,0,2013-02-20 03:18:00
10:27 PM,33.8,30.2,87,29.58,1.0,Calm,Calm,-,0.02,Rain,Light Rain,0,2013-02-20 03:27:00
10:53 PM,34.0,32.0,92,29.61,1.5,Calm,Calm,-,0.04,Rain,Light Rain,0,2013-02-20 03:53:00
11:23 PM,33.8,30.2,87,29.57,0.5,Calm,Calm,-,0.02,Fog-Snow,Light Snow,0,2013-02-20 04:23:00
11:33 PM,33.8,30.2,87,29.56,0.8,Calm,Calm,-,0.03,Snow,Light Snow,0,2013-02-20 04:33:00
11:46 PM,33.8,30.2,87,29.56,1.0,Calm,Calm,-,0.04,Snow,Light Snow,0,2013-02-20 04:46:00
11:53 PM,33.1,30.9,92,29.58,1.0,Calm,Calm,-,0.05,Snow,Light Snow,0,2013-02-20 04:53:00